Regional Weather Roundup
Issued by NWS

Home | Current Version | Previous Version | Graphics & Text | Print | Product List | Glossary On
Versions: 1 2 3 4 5 6 7 8 9 10 11 12 13 14 15 16 17 18 19 20 21 22 23 24 25 26 27 28 29 30 31 32 33 34 35 36 37 38 39 40 41 42 43 44 45 46 47 48 49 50
000
ASUS45 KPSR 211800
RWRAZ

PRELIMINARY ARIZONA REGIONAL HOURLY WEATHER ROUNDUP
NATIONAL WEATHER SERVICE PHOENIX AZ
1100 AM MST SUN SEP 21 2014

NOTE: FAIR INDICATES FEW OR NO CLOUDS BELOW 12,000 FEET WITH NO
SIGNIFICANT WEATHER AND/OR OBSTRUCTIONS TO VISIBILITY.

AZZ001>003-036-211900-
NORTHWEST ARIZONA

CITY           SKY/WX    TMP DP  RH WIND       PRES   REMARKS
KINGMAN        PTSUNNY   83  48  29 SW10      30.07F
6HR MIN TEMP:  72; 6HR MAX TEMP:  84;

$$

AZZ004>008-015-016-018-211900-
NORTH CENTRAL ARIZONA

CITY           SKY/WX    TMP DP  RH WIND       PRES   REMARKS
GRAND CANYON   PTSUNNY   70  56  61 SW13      30.31S
6HR MIN TEMP:  53; 6HR MAX TEMP:  71;

PRESCOTT       MOSUNNY   76  43  30 S5        30.21S
6HR MIN TEMP:  60; 6HR MAX TEMP:  77;

FLAGSTAFF      PTSUNNY   65  54  67 SW9       30.35S
6HR MIN TEMP:  51; 6HR MAX TEMP:  68;

PAYSON         MOSUNNY   77  59  53 VRB5G13   30.24S
PAGE           MOSUNNY   73  57  57 VRB6      30.19S
6HR MIN TEMP:  66; 6HR MAX TEMP:  73; 6HR PCP:  0.10;

$$

AZZ009>014-017-211900-
NORTHEAST ARIZONA

CITY           SKY/WX    TMP DP  RH WIND       PRES   REMARKS
WINSLOW        NOT AVBL
SAINT JOHNS    SUNNY     78  53  41 VRB3      30.25F
6HR MIN TEMP:  57; 6HR MAX TEMP:  80;

$$

AZZ023-211900-
GREATER PHOENIX AREA

CITY           SKY/WX    TMP DP  RH WIND       PRES   REMARKS
PHOENIX        MOSUNNY   93  50  23 VRB5      29.95S
6HR MIN TEMP:  80; 6HR MAX TEMP:  93;

GLENDALE       MOSUNNY   91  61  35 E3        29.97S
DEER VALLEY    MOSUNNY   91  48  22 CALM      29.97F
6HR MIN TEMP:  75; 6HR MAX TEMP:  91;

SCOTTSDALE     PTSUNNY   89  57  33 VRB3      29.99S
6HR MIN TEMP:  77; 6HR MAX TEMP:  90;

MESA-FALCON    MOSUNNY   90  48  24 S8        29.97S
CHANDLER       PTSUNNY   91  52  25 CALM        N/A
$$

AZZ027-028-211900-
SOUTHWEST MARICOPA COUNTY AND PINAL COUNTY

CITY           SKY/WX    TMP DP  RH WIND       PRES   REMARKS
CASA GRANDE    SUNNY     91  48  22 CALM      29.98F
6HR MIN TEMP:  72; 6HR MAX TEMP:  91;

$$

AZZ503-504-507>509-211900-
SOUTHEAST ARIZONA

CITY           SKY/WX    TMP DP  RH WIND       PRES   REMARKS
TUCSON         MOSUNNY   87  62  43 CALM      30.06F
6HR MIN TEMP:  72; 6HR MAX TEMP:  87;

DAVIS-MONTHAN  SUNNY     85  63  46 NW3       30.04F
6HR MIN TEMP:  71; 6HR MAX TEMP:  85;

RYAN FIELD       N/A     88  52  29 CALM      30.05S
NOGALES        PTSUNNY   81  64  56 SW3       30.12F
6HR MIN TEMP:  64; 6HR MAX TEMP:  81;

SIERRA VISTA   PTSUNNY   77  63  61 E6        30.19S
6HR MIN TEMP:  65; 6HR MAX TEMP:  78;

SAFFORD        MOSUNNY   85  65  51 SE8       30.09F
6HR MIN TEMP:  68; 6HR MAX TEMP:  85;

$$

AZZ020-021-025-026-031-211900-
SOUTHWEST ARIZONA

CITY           SKY/WX    TMP DP  RH WIND       PRES   REMARKS
YUMA           SUNNY     94  58  29 VRB6      29.87F
6HR MIN TEMP:  79; 6HR MAX TEMP:  94;

$$

CAZ031-033-041-043-047-048-061-211900-
SOUTHERN CALIFORNIA

CITY           SKY/WX    TMP DP  RH WIND       PRES   REMARKS
DOWNTOWN L.A.  CLOUDY    72  60  66 CALM      30.00S
6HR MIN TEMP:  66; 6HR MAX TEMP:  72;

L.A. AIRPORT   CLOUDY    71  59  65 W8        30.01S
6HR MIN TEMP:  64; 6HR MAX TEMP:  71;

SAN DIEGO      MOSUNNY   75  58  55 W9        30.00S
6HR MIN TEMP:  71; 6HR MAX TEMP:  76;

BURBANK        MOSUNNY   70  57  63 SW5       30.01S
6HR MIN TEMP:  63; 6HR MAX TEMP:  70;

ONTARIO        CLOUDY    69  60  73 CALM      30.01S
6HR MIN TEMP:  65; 6HR MAX TEMP:  69;

RIVERSIDE      CLOUDY    68  60  75 CALM      30.01F
6HR MIN TEMP:  64; 6HR MAX TEMP:  69;

PALM SPRINGS   SUNNY     88  53  30 E6        29.91S
6HR MIN TEMP:  74; 6HR MAX TEMP:  88;

EL CENTRO NAS  SUNNY     91  45  20 S5        29.87S
6HR MIN TEMP:  75; 6HR MAX TEMP:  91;

IMPERIAL       SUNNY     91  43  18 VRB3      29.86F
6HR MIN TEMP:  74; 6HR MAX TEMP:  91;

BLYTHE         SUNNY     91  55  29 VRB5      29.89F
6HR MIN TEMP:  75; 6HR MAX TEMP:  91;

$$

NVZ020-UTZ003-211900-
SOUTHERN NEVADA-UTAH

CITY           SKY/WX    TMP DP  RH WIND       PRES   REMARKS
LAS VEGAS      NOT AVBL
SALT LAKE CITY LGT RAIN  67  58  72 SE16G24   30.19R
6HR MIN TEMP:  66; 6HR MAX TEMP:  70; 6HR PCP: TRACE;

$$

NMZ009-TXZ055-211900-
NEW MEXICO-WEST TEXAS

CITY           SKY/WX    TMP DP  RH WIND       PRES   REMARKS
ALBUQUERQUE    PTSUNNY   79  53  40 SE22G29   30.30F
6HR MIN TEMP:  64; 6HR MAX TEMP:  79;

EL PASO        PTSUNNY   81  64  56 N7        30.16F
6HR MIN TEMP:  70; 6HR MAX TEMP:  82;

$$


........................KEY........................
SKY/WX - SKY CONDITION/WEATHER
TMP    - TEMPERATURE IN FAHRENHEIT
DP     - DEW POINT IN FAHRENHEIT
RH     - RELATIVE HUMIDITY IN PERCENT
WIND   - DIRECTION AND SPEED IN MILES PER HOUR (MPH)
VRB    - VARIABLE WIND DIRECTION
PRES   - MEAN SEA LEVEL PRESSURE IN INCHES OF MERCURY
         F - FALLING PRESSURE   R - RISING PRESSURE
         S - STEADY PRESSURE
VSB    - VISIBILITY IN MILES
HX     - HEAT INDEX IN FAHRENHEIT
WCI    - WIND CHILL INDEX IN FAHRENHEIT
TC     - TEMPERATURE IN CELSIUS WHICH IS ALSO KNOWN AS
         TEMPERATURE IN CENTIGRADE
AFB    - AIR FORCE BASE
         LUKE AFB IS LUKE AIR FORCE BASE
         DAVIS-MONTHAN IS DAVIS-MONTHAN AIR FORCE BASE
NAS    - NAVAL AIR STATION
         EL CENTRO NAS IS EL CENTRO NAVAL AIR STATION
N/A    - NOT AVAILABLE


USA.gov is the U.S. government's official web portal to all federal, state and local government web resources and services.